Regional Weather Roundup
Issued by NWS

Home | Current Version | Previous Version | Graphics & Text | Print | Product List | Glossary On
Versions: 1 2 3 4 5 6 7 8 9 10 11 12 13 14 15 16 17 18 19 20 21 22 23 24 25 26 27 28 29 30 31 32 33 34 35 36 37 38 39 40 41 42 43 44 45 46 47 48 49 50
000
ASUS43 KFSD 301410
RWRSD

WEATHER ROUNDUP FOR SOUTH DAKOTA
NATIONAL WEATHER SERVICE SIOUX FALLS SD
900 AM CDT SAT MAY 30 2015

NOTE: "FAIR" INDICATES FEW OR NO CLOUDS BELOW 12,000 FEET WITH NO
SIGNIFICANT WEATHER AND/OR OBSTRUCTIONS TO VISIBILITY.


SDZ001>005-009-010-012>017-301500-
NORTHWEST AND NORTH CENTRAL SOUTH DAKOTA

CITY           SKY/WX    TMP DP  RH WIND       PRES   REMARKS
BUFFALO          N/A     48  38  68 SE17      30.21F
FAITH            N/A     45  38  76 SE16      30.32S
MOBRIDGE       SUNNY     43  33  68 E10       30.37S
$$

SDZ012>016-024>037-041>051-057-063-072>074-301500-
SOUTHWEST AND SOUTH CENTRAL SOUTH DAKOTA

CITY           SKY/WX    TMP DP  RH WIND       PRES   REMARKS
RAPID CTY ARPT SUNNY     46  40  79 S16       30.30F
PIERRE         SUNNY     44  36  73 E10       30.36R
CUSTER         FOG       37  36  96 VRB5      30.28F VSB<1/4
ELLSWORTH AFB  SUNNY     46  41  80 S14       30.29F
PHILIP         SUNNY     47  40  76 SE6       30.34S
PINE RIDGE     SUNNY     46  39  76 CALM      30.31F
SPEARFISH      FAIR      46  37  71 CALM      30.25F
WINNER         FAIR      46  37  71 NE10      30.34S
$$

SDZ004>011-016>023-039-040-301500-
NORTHEAST SOUTH DAKOTA

CITY           SKY/WX    TMP DP  RH WIND       PRES   REMARKS
ABERDEEN       SUNNY     43  31  62 NE13      30.39R
WATERTOWN      SUNNY     43  35  73 N12       30.30R
BROOKINGS      SUNNY     43  36  75 N14       30.30S
SISSETON         N/A     42  36  79 N13       30.35R
$$

SDZ017-020-022-023-036>040-048>070-301500-
SOUTHEAST SOUTH DAKOTA

CITY           SKY/WX    TMP DP  RH WIND       PRES   REMARKS
SIOUX FALLS    MOSUNNY   47  39  74 N14G21    30.27R
HURON          SUNNY     44  34  67 N14       30.34R
CHAMBERLAIN    SUNNY     43  37  78 N12       30.35S
MITCHELL       SUNNY     47  38  71 N14       30.33R
YANKTON        MOSUNNY   48  39  71 N15       30.28R
$$

ABBREVIATIONS USED IN REMARKS
   TC - TEMPERATURE IN CELSIUS
  WCI - WIND CHILL INDEX
   HX - HEAT INDEX
  VSB - VISIBILITY



USA.gov is the U.S. government's official web portal to all federal, state and local government web resources and services.